Weather observations for the past three days for
La Paz International Airport
| Date | Time (mst) | Wind (mph) | Vis. (mi.) | Weather | Sky Cond. | Temperature (ºF) | Relative Humidity | Wind Chill (°F) | Heat Index (°F) | Pressure | Precipitation (in) | ||||||
|---|---|---|---|---|---|---|---|---|---|---|---|---|---|---|---|---|---|
| Air | Dwpt | 6 hour | altimeter (in) | sea level (mb) | 1 hr | 3 hr | 6 hr | ||||||||||
| Max. | Min. | ||||||||||||||||
| 06 | 09:40 | N 9 | 10.00 | A Few Clouds | FEW120 | 80.6 | 66.2 | 62% | 83 | 30 | 0.0 | ||||||
| 06 | 08:40 | NW 8 | 10.00 | Partly Cloudy | SCT120 | 78.8 | 60.8 | 54% | 80 | 30 | 0.0 | ||||||
| 06 | 07:40 | Calm | 10.00 | A Few Clouds | FEW120 | 77 | 55.4 | 47% | 79 | 29.99 | 1015.1 | ||||||
| 06 | 06:40 | S 5 | 10.00 | Partly Cloudy | SCT120 | 68 | 55.4 | 64% | 29.98 | 0.0 | |||||||
| 06 | 05:46 | S 7 | 10.00 | Partly Cloudy | SCT120 | 66.2 | 55.4 | 68% | 29.96 | 0.0 | |||||||
| 05 | 22:40 | S 5 | 8.00 | A Few Clouds | FEW200 | 73.4 | 66.2 | 78% | 29.95 | 1013.8 | |||||||
| 05 | 21:40 | Calm | 8.00 | A Few Clouds | FEW200 | 75.2 | 66.2 | 74% | 77 | 29.94 | 0.0 | ||||||
| 05 | 20:46 | NW 5 | 8.00 | Partly Cloudy | SCT200 | 77 | 68 | 74% | 79 | 29.93 | 0.0 | ||||||
| 05 | 19:40 | N 7 | 8.00 | Mostly Cloudy | BKN200 | 78.8 | 68 | 70% | 81 | 29.92 | 1012.7 | ||||||
| 05 | 18:40 | N 9 | 10.00 | Mostly Cloudy | BKN200 | 82.4 | 64.4 | 55% | 84 | 29.91 | 0.0 | ||||||
| 05 | 17:40 | N 12 | 10.00 | Mostly Cloudy | BKN200 | 86 | 62.6 | 46% | 87 | 29.89 | 0.0 | ||||||
| 05 | 16:40 | N 12 | 10.00 | Mostly Cloudy | BKN200 | 89.6 | 60.8 | 38% | 90 | 29.87 | 1011.2 | ||||||
| 05 | 15:40 | N 9 | 10.00 | Mostly Cloudy | BKN200 | 91.4 | 41 | 17% | 87 | 29.88 | 0.0 | ||||||
| 05 | 14:40 | N 13 | 10.00 | Mostly Cloudy | BKN200 | 87.8 | 51.8 | 29% | 85 | 29.91 | 0.0 | ||||||
| 05 | 13:40 | N 8 | 10.00 | Mostly Cloudy | BKN200 | 87.8 | 51.8 | 29% | 85 | 29.93 | 1013.2 | ||||||
| 05 | 12:40 | N 10 | 10.00 | Mostly Cloudy | BKN200 | 87.8 | 50 | 27% | 85 | 29.96 | 0.0 | ||||||
| 05 | 11:40 | Calm | 10.00 | Mostly Cloudy | BKN200 | 86 | 46.4 | 25% | 83 | 29.98 | 0.0 | ||||||
| 05 | 10:40 | SW 7 | 10.00 | Mostly Cloudy | BKN200 | 80.6 | 53.6 | 39% | 80 | 29.99 | 1015.3 | ||||||
| 05 | 09:40 | S 13 | 10.00 | Mostly Cloudy | BKN200 | 75.2 | 53.6 | 47% | 78 | 29.99 | 0.0 | ||||||
| 05 | 08:40 | SW 13 | 10.00 | Mostly Cloudy | BKN200 | 73.4 | 53.6 | 50% | 29.98 | 0.0 | |||||||
| 05 | 07:40 | SE 9 | 10.00 | Mostly Cloudy | BKN200 | 66.2 | 55.4 | 68% | 29.98 | 1014.5 | |||||||
| 05 | 06:40 | SE 6 | 8.00 | Mostly Cloudy | BKN200 | 62.6 | 55.4 | 77% | 29.97 | 0.0 | |||||||
| 05 | 06:03 | Calm | 8.00 | A Few Clouds | FEW200 | 59 | 53.6 | 82% | 29.94 | 0.0 | |||||||
| 04 | 22:40 | SE 12 | 8.00 | A Few Clouds | FEW200 | 66.2 | 57.2 | 73% | 29.97 | 1014.7 | |||||||
| 04 | 21:40 | S 14 | 8.00 | Partly Cloudy | SCT200 | 68 | 57.2 | 69% | 29.97 | 0.0 | |||||||
| 04 | 20:40 | S 16 | 8.00 | Partly Cloudy | SCT200 | 69.8 | 57.2 | 64% | 29.96 | 0.0 | |||||||
| 04 | 19:40 | S 13 | 8.00 | Mostly Cloudy | BKN200 | 73.4 | 57.2 | 57% | 29.94 | 1013.3 | |||||||
| 04 | 18:40 | S 10 | 10.00 | Mostly Cloudy | BKN200 | 78.8 | 57.2 | 48% | 80 | 29.92 | 0.0 | ||||||
| 04 | 17:42 | SW 10 | 10.00 | Mostly Cloudy | BKN200 | 86 | 53.6 | 33% | 84 | 29.91 | 0.0 | ||||||
| 04 | 16:40 | N 6 | 10.00 | Mostly Cloudy | BKN200 | 87.8 | 59 | 38% | 87 | 29.91 | 1012.3 | ||||||
| 04 | 15:40 | N 9 | 10.00 | Mostly Cloudy | BKN200 | 86 | 57.2 | 38% | 85 | 29.92 | 0.0 | ||||||
| 04 | 14:40 | NW 14 | 10.00 | Mostly Cloudy | BKN200 | 89.6 | 60.8 | 38% | 90 | 29.92 | 0.0 | ||||||
| 04 | 13:44 | Calm | 10.00 | Mostly Cloudy | BKN200 | 89.6 | 53.6 | 29% | 87 | 29.93 | 1013.2 | ||||||
| 04 | 12:40 | S 12 | 10.00 | Partly Cloudy | SCT200 | 87.8 | 53.6 | 31% | 86 | 29.96 | 0.0 | ||||||
| 04 | 11:40 | S 16 | 10.00 | Mostly Cloudy | BKN200 | 84.2 | 53.6 | 35% | 83 | 29.98 | 0.0 | ||||||
| 04 | 10:40 | S 15 | 10.00 | Mostly Cloudy | BKN200 | 80.6 | 53.6 | 39% | 80 | 30 | 1015.4 | ||||||
| 04 | 09:40 | S 9 | 10.00 | Mostly Cloudy | BKN200 | 75.2 | 55.4 | 50% | 78 | 30.01 | 0.0 | ||||||
| 04 | 08:44 | S 13 | 10.00 | Mostly Cloudy | BKN200 | 68 | 55.4 | 64% | 30.02 | 0.0 | |||||||
| 04 | 07:41 | S 12 | 10.00 | Mostly Cloudy | FEW100 BKN200 | 64.4 | 55.4 | 73% | 30.01 | 1015.9 | |||||||
| 04 | 06:46 | S 10 | 10.00 | Mostly Cloudy | FEW100 BKN200 | 60.8 | 55.4 | 83% | 30 | 0.0 | |||||||
| 04 | 05:40 | S 10 | 10.00 | Partly Cloudy | SCT200 | 59 | 55.4 | 88% | 29.99 | 0.0 | |||||||
| 03 | 22:40 | S 9 | 10.00 | Clear | SKC | 66.2 | 57.2 | 73% | 30.02 | 1016.1 | |||||||
| 03 | 21:40 | S 10 | 10.00 | Clear | SKC | 68 | 57.2 | 69% | 30.02 | 0.0 | |||||||
| 03 | 20:40 | S 12 | 10.00 | Clear | SKC | 69.8 | 57.2 | 64% | 30.01 | 0.0 | |||||||
| 03 | 19:40 | S 13 | 10.00 | Partly Cloudy | SCT200 | 73.4 | 57.2 | 57% | 29.98 | 1014.7 | |||||||
| 03 | 18:40 | SW 12 | 10.00 | Mostly Cloudy | BKN200 | 78.8 | 53.6 | 42% | 79 | 29.95 | 0.0 | ||||||
| 03 | 17:40 | S 8 | 10.00 | Partly Cloudy | SCT200 | 84.2 | 51.8 | 33% | 82 | 29.93 | 0.0 | ||||||
| 03 | 16:40 | SW 8 | 10.00 | Mostly Cloudy | BKN200 | 86 | 50 | 29% | 84 | 29.91 | 1012.5 | ||||||
| 03 | 15:41 | SW 17 | 10.00 | Mostly Cloudy | BKN200 | 89.6 | 51.8 | 27% | 87 | 29.91 | 0.0 | ||||||
| 03 | 14:40 | SW 15 | 10.00 | Mostly Cloudy | BKN200 | 93.2 | 50 | 23% | 90 | 29.91 | 0.0 | ||||||
| 03 | 13:40 | SW 7 | 10.00 | Mostly Cloudy | BKN200 | 91.4 | 51.8 | 26% | 89 | 29.91 | 1012.4 | ||||||
| 03 | 12:41 | S 7 | 10.00 | Mostly Cloudy | BKN200 | 89.6 | 51.8 | 27% | 87 | 29.93 | 0.0 | ||||||
| 03 | 11:42 | W 3 | 10.00 | A Few Clouds | FEW200 | 89.6 | 48.2 | 24% | 86 | 29.96 | 0.0 | ||||||
| Date | Time (mst) | Wind (mph) | Vis. (mi.) | Weather | Sky Cond. | Air | Dwpt | Max. | Min. | Relative Humidity | Wind Chill (°F) | Heat Index (°F) | altimeter (in) | sea level (mb) | 1 hr | 3 hr | 6 hr |
| 6 hour | |||||||||||||||||
| Temperature (ºF) | Pressure | Precipitation (in) | |||||||||||||||